TimeEDT,TemperatureF,Dew PointF,Humidity,Sea Level PressureIn,VisibilityMPH,Wind Direction,Wind SpeedMPH,Gust SpeedMPH,PrecipitationIn,Events,Conditions,WindDirDegrees,DateUTC
12:54 AM,59.0,51.1,75,30.02,10.0,SW,3.5,-,N/A,,Scattered Clouds,220,2013-09-30 04:54:00
1:54 AM,57.0,50.0,77,30.02,10.0,WSW,6.9,-,N/A,,Scattered Clouds,240,2013-09-30 05:54:00
2:54 AM,55.9,50.0,80,30.01,10.0,SW,6.9,-,N/A,,Partly Cloudy,230,2013-09-30 06:54:00
3:54 AM,55.0,50.0,83,30.01,10.0,SW,6.9,-,N/A,,Scattered Clouds,230,2013-09-30 07:54:00
4:54 AM,57.0,51.1,81,30.01,10.0,SW,6.9,-,N/A,,Overcast,230,2013-09-30 08:54:00
5:54 AM,57.9,50.0,75,30.03,10.0,SW,8.1,-,N/A,,Mostly Cloudy,220,2013-09-30 09:54:00
6:54 AM,57.9,51.1,78,30.03,10.0,SW,5.8,-,N/A,,Overcast,220,2013-09-30 10:54:00
7:54 AM,60.1,51.1,72,30.04,10.0,SW,6.9,-,N/A,,Overcast,220,2013-09-30 11:54:00
8:54 AM,60.1,52.0,75,30.04,10.0,SW,5.8,-,N/A,,Overcast,230,2013-09-30 12:54:00
9:54 AM,63.0,52.0,67,30.04,10.0,SW,6.9,-,N/A,,Overcast,220,2013-09-30 13:54:00
10:54 AM,63.0,53.1,70,30.03,10.0,SSW,4.6,-,N/A,,Overcast,210,2013-09-30 14:54:00
11:54 AM,66.0,55.0,68,30.02,10.0,SSW,5.8,-,N/A,,Overcast,210,2013-09-30 15:54:00
12:54 PM,70.0,57.9,65,30.02,10.0,SSW,4.6,-,N/A,,Overcast,210,2013-09-30 16:54:00
1:54 PM,73.9,57.9,57,30.00,10.0,SW,3.5,-,N/A,,Mostly Cloudy,220,2013-09-30 17:54:00
2:54 PM,75.9,59.0,56,29.98,10.0,Calm,Calm,-,N/A,,Mostly Cloudy,0,2013-09-30 18:54:00
3:54 PM,77.0,59.0,54,29.96,10.0,Variable,3.5,-,N/A,,Scattered Clouds,0,2013-09-30 19:54:00
4:54 PM,75.0,57.0,53,29.96,10.0,Calm,Calm,-,N/A,,Mostly Cloudy,0,2013-09-30 20:54:00
5:54 PM,71.1,59.0,66,29.96,10.0,NNE,6.9,-,N/A,,Mostly Cloudy,30,2013-09-30 21:54:00
6:54 PM,69.1,57.9,68,29.98,10.0,NW,5.8,-,N/A,,Mostly Cloudy,320,2013-09-30 22:54:00
7:54 PM,66.9,57.9,73,29.99,10.0,West,4.6,-,N/A,,Scattered Clouds,270,2013-09-30 23:54:00
8:54 PM,66.0,59.0,78,30.01,10.0,West,4.6,-,N/A,,Mostly Cloudy,260,2013-10-01 00:54:00
9:54 PM,66.0,60.1,81,30.01,10.0,Calm,Calm,-,N/A,,Overcast,0,2013-10-01 01:54:00
10:54 PM,64.0,60.1,87,30.01,10.0,SSW,3.5,-,N/A,,Overcast,210,2013-10-01 02:54:00
11:54 PM,63.0,59.0,87,30.00,10.0,Calm,Calm,-,N/A,,Mostly Cloudy,0,2013-10-01 03:54:00